Weather History for KSPI - June, 2012

Change the Weather History Date:

Friday, June 1, 2012

  Actual Average Record
Temperature  
Mean Temperature 58 °F 69 °F  
Max Temperature 68 °F 79 °F 104 °F (1934)
Min Temperature 48 °F 58 °F 39 °F (2003)
Degree Days  
Heating Degree Days 8 1  
Month to date heating degree days 1  
Since 1 June heating degree days 1  
Since 1 July heating degree days 5471  
Cooling Degree Days 0 5  
Month to date cooling degree days 0 5  
Year to date cooling degree days 257 109  
Since 1 June cooling degree days 0 5  
Growing Degree Days 7 (Base 50)    
Moisture  
Dew Point 45 °F    
Average Humidity 68    
Maximum Humidity 93    
Minimum Humidity 42    
Precipitation  
Precipitation 0.00 in 0.16 in 3.87 in (1965)
Month to date precipitation 0.00 0.16  
Year to date precipitation 13.51 14.17  
Snow  
Snow 0.00 in 0.00 in 0.00 in ()
Month to date snowfall 0.0 0.0  
Since 1 June snowfall 0.0 0.0  
Since 1 July snowfall 9.2 20.9  
Snow Depth 0.00 in    
Sea Level Pressure  
Sea Level Pressure 29.89 in    
Wind  
Wind Speed 10 mph (NW)    
Max Wind Speed 18 mph    
Max Gust Speed 24 mph    
Visibility 10 miles    
Events      
T = Trace of Precipitation, MM = Missing Value Source: NWS Daily Summary

Daily Weather History Graph

Daily Weather History Graph

Search for Another Location

Airport or City:

Trip Planner

Search our weather history database for the weather conditions in past years. The results will help you decide how hot, cold, wet, or windy it might be!

Date:

Astronomy

Jun. 01, 2012 Rise Set
Actual Time 5:32 AM CDT 8:21 PM CDT
Civil Twilight 5:00 AM CDT 8:53 PM CDT
Nautical Twilight 4:19 AM CDT 9:33 PM CDT
Astronomical Twilight 3:33 AM CDT 10:20 PM CDT
Moon 5:23 PM CDT (6/1) 3:07 AM CDT (6/1)
Length of Visible Light 15h 53m
Length of Day
14h 49m
Waxing Gibbous, 89% of the Moon is Illuminated
Jun 1
Waxing Gibbous
Jun 4
Full
Jun 11
Last Quarter
Jun 19
New
Jun 26
First Quarter

Hourly Weather History & Observations

Time (CDT) Temp. Dew Point Humidity Pressure Visibility Wind Dir Wind Speed Gust Speed Precip Events Conditions
12:34 AM 50.0 °F 46.4 °F 87% 29.87 in 10.0 mi NNW 12.7 mph 19.6 mph N/A   Overcast
12:52 AM 48.9 °F 46.0 °F 90% 29.88 in 10.0 mi NNW 11.5 mph - N/A   Overcast
1:52 AM 48.0 °F 45.0 °F 89% 29.87 in 10.0 mi NNW 9.2 mph - N/A   Overcast
2:52 AM 48.0 °F 45.0 °F 89% 29.86 in 10.0 mi NW 8.1 mph - N/A   Overcast
3:52 AM 48.9 °F 46.0 °F 90% 29.86 in 10.0 mi NW 10.4 mph - N/A   Overcast
4:52 AM 48.9 °F 45.0 °F 86% 29.86 in 10.0 mi NW 8.1 mph - N/A   Overcast
5:47 AM 48.2 °F 44.6 °F 87% 29.87 in 10.0 mi NW 10.4 mph - N/A   Overcast
5:52 AM 48.9 °F 45.0 °F 86% 29.88 in 10.0 mi NW 9.2 mph - N/A   Overcast
6:14 AM 48.2 °F 44.6 °F 87% 29.88 in 10.0 mi NW 8.1 mph - N/A   Overcast
6:52 AM 50.0 °F 45.0 °F 83% 29.89 in 10.0 mi NW 6.9 mph - N/A   Overcast
7:21 AM 50.0 °F 44.6 °F 82% 29.88 in 10.0 mi NW 6.9 mph - N/A   Overcast
7:52 AM 50.0 °F 45.0 °F 83% 29.90 in 10.0 mi NW 9.2 mph - N/A   Overcast
8:24 AM 51.8 °F 44.6 °F 76% 29.90 in 10.0 mi NW 8.1 mph - N/A   Overcast
8:45 AM 51.8 °F 44.6 °F 76% 29.90 in 10.0 mi WNW 9.2 mph - N/A   Overcast
8:52 AM 52.0 °F 45.0 °F 77% 29.91 in 10.0 mi NW 9.2 mph - N/A   Overcast
9:52 AM 54.0 °F 46.0 °F 75% 29.91 in 10.0 mi NW 11.5 mph - N/A   Overcast
10:25 AM 55.4 °F 44.6 °F 67% 29.91 in 10.0 mi NW 12.7 mph 19.6 mph N/A   Overcast
10:52 AM 57.0 °F 46.0 °F 67% 29.91 in 10.0 mi NW 13.8 mph - N/A   Overcast
11:40 AM 59.0 °F 46.4 °F 63% 29.92 in 10.0 mi NNW 13.8 mph 24.2 mph N/A   Overcast
11:52 AM 59.0 °F 46.0 °F 62% 29.93 in 10.0 mi NW 13.8 mph 18.4 mph N/A   Overcast
12:52 PM 60.1 °F 45.0 °F 57% 29.92 in 10.0 mi NW 16.1 mph 23.0 mph N/A   Overcast
1:52 PM 64.0 °F 45.0 °F 50% 29.90 in 10.0 mi NW 13.8 mph - N/A   Mostly Cloudy
2:52 PM 64.9 °F 45.0 °F 48% 29.88 in 10.0 mi NNW 12.7 mph 21.9 mph N/A   Mostly Cloudy
3:52 PM 66.0 °F 43.0 °F 43% 29.88 in 10.0 mi NW 13.8 mph 21.9 mph N/A   Scattered Clouds
4:52 PM 66.0 °F 42.1 °F 42% 29.88 in 10.0 mi NW 10.4 mph - N/A   Scattered Clouds
5:52 PM 66.0 °F 42.1 °F 42% 29.87 in 10.0 mi WNW 11.5 mph - N/A   Partly Cloudy
6:52 PM 64.9 °F 44.1 °F 47% 29.88 in 10.0 mi West 10.4 mph - N/A   Scattered Clouds
7:52 PM 62.1 °F 46.0 °F 56% 29.88 in 10.0 mi West 6.9 mph - N/A   Scattered Clouds
8:52 PM 55.9 °F 48.0 °F 75% 29.89 in 10.0 mi West 6.9 mph - N/A   Clear
9:52 PM 55.0 °F 48.0 °F 77% 29.88 in 10.0 mi WSW 5.8 mph - N/A   Clear
10:52 PM 52.0 °F 46.9 °F 83% 29.89 in 10.0 mi West 5.8 mph - N/A   Clear
11:52 PM 52.0 °F 46.0 °F 80% 29.88 in 10.0 mi WSW 8.1 mph - N/A   Clear